Time,TemperatureF,DewpointF,PressureIn,WindDirection,WindDirectionDegrees,WindSpeedMPH,WindSpeedGustMPH,Humidity,HourlyPrecipIn,Conditions,Clouds,dailyrainin,SoftwareType,DateUTC
2013-05-16 00:04:00,51.0,51.0,29.70,SW,225,1.0,3.0,100,0.00,,,0.00,Weather View 32 v70,2013-05-16 04:04:00,
2013-05-16 00:14:00,51.0,51.0,29.69,South,180,1.0,3.0,100,0.00,,,0.00,Weather View 32 v70,2013-05-16 04:14:00,
2013-05-16 00:19:00,51.0,51.0,29.70,WNW,292,1.0,3.0,100,0.00,,,0.00,Weather View 32 v70,2013-05-16 04:19:00,
2013-05-16 00:24:00,51.0,51.0,29.69,WSW,248,0.0,3.0,100,0.00,,,0.00,Weather View 32 v70,2013-05-16 04:24:00,
2013-05-16 00:29:00,51.0,51.0,29.69,West,270,0.0,3.0,100,0.00,,,0.00,Weather View 32 v70,2013-05-16 04:29:00,
2013-05-16 00:35:00,51.0,51.0,29.69,SE,135,0.0,3.0,100,0.00,,,0.00,Weather View 32 v70,2013-05-16 04:35:00,
2013-05-16 00:42:00,51.0,51.0,29.70,WSW,248,1.0,2.0,100,0.00,,,0.00,Weather View 32 v70,2013-05-16 04:42:00,
2013-05-16 00:49:00,50.0,50.0,29.69,West,270,0.0,2.0,100,0.00,,,0.00,Weather View 32 v70,2013-05-16 04:49:00,
2013-05-16 00:59:00,50.0,50.0,29.69,South,180,0.0,2.0,100,0.00,,,0.00,Weather View 32 v70,2013-05-16 04:59:00,
2013-05-16 01:09:00,50.0,50.0,29.69,SW,225,0.0,2.0,100,0.00,,,0.00,Weather View 32 v70,2013-05-16 05:09:00,
2013-05-16 01:19:00,50.0,50.0,29.69,WNW,292,0.0,2.0,100,0.00,,,0.00,Weather View 32 v70,2013-05-16 05:19:00,
2013-05-16 01:29:00,50.0,50.0,29.69,WNW,292,0.0,2.0,100,0.00,,,0.00,Weather View 32 v70,2013-05-16 05:29:00,
2013-05-16 01:39:00,50.0,50.0,29.69,West,270,0.0,2.0,100,0.00,,,0.00,Weather View 32 v70,2013-05-16 05:39:00,
2013-05-16 01:44:00,50.0,50.0,29.69,SE,135,0.0,2.0,100,0.00,,,0.00,Weather View 32 v70,2013-05-16 05:44:00,
2013-05-16 01:54:00,50.0,50.0,29.69,WNW,292,0.0,1.0,100,0.00,,,0.00,Weather View 32 v70,2013-05-16 05:54:00,
2013-05-16 01:59:00,49.0,49.0,29.69,WSW,248,1.0,1.0,100,0.00,,,0.00,Weather View 32 v70,2013-05-16 05:59:00,
2013-05-16 02:09:00,49.0,49.0,29.68,West,270,0.0,1.0,100,0.00,,,0.00,Weather View 32 v70,2013-05-16 06:09:00,
2013-05-16 02:19:00,48.0,48.0,29.68,WNW,292,0.0,1.0,100,0.00,,,0.00,Weather View 32 v70,2013-05-16 06:19:00,
2013-05-16 02:29:00,48.0,48.0,29.68,West,270,0.0,1.0,100,0.00,,,0.00,Weather View 32 v70,2013-05-16 06:29:00,
2013-05-16 02:39:00,47.0,47.0,29.68,West,270,0.0,1.0,100,0.00,,,0.00,Weather View 32 v70,2013-05-16 06:39:00,
2013-05-16 02:50:00,47.0,47.0,29.68,West,270,0.0,1.0,100,0.00,,,0.00,Weather View 32 v70,2013-05-16 06:50:00,
2013-05-16 02:59:00,46.0,46.0,29.68,West,270,0.0,1.0,100,0.00,,,0.00,Weather View 32 v70,2013-05-16 06:59:00,
2013-05-16 03:04:00,46.0,46.0,29.68,WNW,292,0.0,1.0,100,0.00,,,0.00,Weather View 32 v70,2013-05-16 07:04:00,
2013-05-16 03:09:00,46.0,46.0,29.68,West,270,0.0,1.0,100,0.00,,,0.00,Weather View 32 v70,2013-05-16 07:09:00,
2013-05-16 03:15:00,46.0,46.0,29.68,West,270,0.0,1.0,100,0.00,,,0.00,Weather View 32 v70,2013-05-16 07:15:00,
2013-05-16 03:25:00,46.0,46.0,29.68,West,270,0.0,1.0,100,0.00,,,0.00,Weather View 32 v70,2013-05-16 07:25:00,
2013-05-16 03:34:00,46.0,46.0,29.68,WNW,292,0.0,1.0,100,0.00,,,0.00,Weather View 32 v70,2013-05-16 07:34:00,
2013-05-16 03:44:00,46.0,46.0,29.68,WNW,292,0.0,1.0,100,0.00,,,0.00,Weather View 32 v70,2013-05-16 07:44:00,
2013-05-16 03:54:00,45.0,45.0,29.68,WNW,292,0.0,1.0,100,0.00,,,0.00,Weather View 32 v70,2013-05-16 07:54:00,
2013-05-16 04:00:00,45.0,45.0,29.68,South,180,0.0,1.0,100,0.00,,,0.00,Weather View 32 v70,2013-05-16 08:00:00,
2013-05-16 04:09:00,45.0,45.0,29.67,WSW,248,0.0,1.0,100,0.00,,,0.00,Weather View 32 v70,2013-05-16 08:09:00,
2013-05-16 04:20:00,46.0,46.0,29.67,WSW,248,0.0,1.0,100,0.00,,,0.00,Weather View 32 v70,2013-05-16 08:20:00,
2013-05-16 04:25:00,46.0,46.0,29.67,WNW,292,0.0,1.0,100,0.00,,,0.00,Weather View 32 v70,2013-05-16 08:25:00,
2013-05-16 04:34:00,46.0,46.0,29.67,West,270,0.0,1.0,100,0.00,,,0.00,Weather View 32 v70,2013-05-16 08:34:00,
2013-05-16 04:44:00,47.0,47.0,29.66,WNW,292,0.0,1.0,100,0.00,,,0.00,Weather View 32 v70,2013-05-16 08:44:00,
2013-05-16 04:55:00,47.0,47.0,29.67,WNW,292,0.0,1.0,100,0.00,,,0.00,Weather View 32 v70,2013-05-16 08:55:00,
2013-05-16 05:00:00,47.0,47.0,29.67,West,270,0.0,1.0,100,0.00,,,0.00,Weather View 32 v70,2013-05-16 09:00:00,
2013-05-16 05:09:00,47.0,47.0,29.67,WNW,292,1.0,2.0,100,0.00,,,0.00,Weather View 32 v70,2013-05-16 09:09:00,
2013-05-16 05:20:00,48.0,48.0,29.67,WSW,248,1.0,3.0,100,0.00,,,0.00,Weather View 32 v70,2013-05-16 09:20:00,
2013-05-16 05:26:00,48.0,48.0,29.67,SE,135,1.0,3.0,100,0.00,,,0.00,Weather View 32 v70,2013-05-16 09:26:00,
2013-05-16 05:34:00,47.0,47.0,29.67,WSW,248,1.0,3.0,100,0.00,,,0.00,Weather View 32 v70,2013-05-16 09:34:00,
2013-05-16 05:44:00,47.0,47.0,29.68,WNW,292,0.0,3.0,100,0.00,,,0.00,Weather View 32 v70,2013-05-16 09:44:00,
2013-05-16 05:55:00,47.0,47.0,29.68,West,270,0.0,3.0,100,0.00,,,0.00,Weather View 32 v70,2013-05-16 09:55:00,
2013-05-16 06:04:00,47.0,47.0,29.68,WNW,292,0.0,3.0,100,0.00,,,0.00,Weather View 32 v70,2013-05-16 10:04:00,
2013-05-16 06:14:00,47.0,47.0,29.68,SSW,202,0.0,3.0,100,0.00,,,0.00,Weather View 32 v70,2013-05-16 10:14:00,
2013-05-16 06:20:00,47.0,47.0,29.68,South,180,0.0,2.0,100,0.00,,,0.00,Weather View 32 v70,2013-05-16 10:20:00,
2013-05-16 06:27:00,48.0,48.0,29.68,SW,225,0.0,2.0,100,0.00,,,0.00,Weather View 32 v70,2013-05-16 10:27:00,
2013-05-16 06:35:00,48.0,48.0,29.68,WNW,292,1.0,2.0,100,0.00,,,0.00,Weather View 32 v70,2013-05-16 10:35:00,
2013-05-16 06:44:00,49.0,49.0,29.68,West,270,0.0,2.0,100,0.00,,,0.00,Weather View 32 v70,2013-05-16 10:44:00,
2013-05-16 06:54:00,49.0,49.0,29.68,West,270,1.0,2.0,100,0.00,,,0.00,Weather View 32 v70,2013-05-16 10:54:00,
2013-05-16 06:59:00,49.0,49.0,29.68,South,180,0.0,2.0,100,0.00,,,0.00,Weather View 32 v70,2013-05-16 10:59:00,
2013-05-16 07:04:00,50.0,50.0,29.69,WNW,292,0.0,2.0,100,0.00,,,0.00,Weather View 32 v70,2013-05-16 11:04:00,
2013-05-16 07:14:00,50.0,50.0,29.69,SW,225,1.0,2.0,100,0.00,,,0.00,Weather View 32 v70,2013-05-16 11:14:00,
2013-05-16 07:24:00,50.0,50.0,29.69,WNW,292,1.0,3.0,100,0.00,,,0.00,Weather View 32 v70,2013-05-16 11:24:00,
2013-05-16 07:34:00,50.0,50.0,29.69,South,180,3.0,4.0,100,0.00,,,0.00,Weather View 32 v70,2013-05-16 11:34:00,
2013-05-16 07:39:00,51.0,51.0,29.69,South,180,0.0,4.0,100,0.00,,,0.00,Weather View 32 v70,2013-05-16 11:39:00,
2013-05-16 07:49:00,51.0,51.0,29.69,South,180,1.0,4.0,100,0.00,,,0.00,Weather View 32 v70,2013-05-16 11:49:00,
2013-05-16 07:54:00,52.0,52.0,29.70,South,180,2.0,4.0,100,0.00,,,0.00,Weather View 32 v70,2013-05-16 11:54:00,
2013-05-16 08:00:00,52.0,52.0,29.69,SSW,202,0.0,4.0,100,0.00,,,0.00,Weather View 32 v70,2013-05-16 12:00:00,
2013-05-16 08:04:00,53.0,53.0,29.70,SW,225,0.0,4.0,100,0.00,,,0.00,Weather View 32 v70,2013-05-16 12:04:00,
2013-05-16 08:14:00,54.0,54.0,29.70,SSE,158,1.0,4.0,100,0.00,,,0.00,Weather View 32 v70,2013-05-16 12:14:00,
2013-05-16 08:24:00,55.0,55.0,29.69,WSW,248,1.0,4.0,100,0.00,,,0.00,Weather View 32 v70,2013-05-16 12:24:00,
2013-05-16 08:29:00,55.0,55.0,29.69,SSE,158,1.0,5.0,100,0.00,,,0.00,Weather View 32 v70,2013-05-16 12:29:00,
2013-05-16 08:40:00,55.0,55.0,29.69,West,270,1.0,5.0,100,0.00,,,0.00,Weather View 32 v70,2013-05-16 12:40:00,
2013-05-16 08:49:00,56.0,55.4,29.69,SE,135,1.0,5.0,98,0.00,,,0.00,Weather View 32 v70,2013-05-16 12:49:00,
2013-05-16 08:54:00,56.0,55.2,29.69,SSE,158,2.0,5.0,97,0.00,,,0.00,Weather View 32 v70,2013-05-16 12:54:00,
2013-05-16 09:04:00,57.0,51.9,29.69,SSW,202,3.0,6.0,83,0.00,,,0.00,Weather View 32 v70,2013-05-16 13:04:00,
2013-05-16 09:09:00,57.0,51.5,29.69,South,180,2.0,6.0,82,0.00,,,0.00,Weather View 32 v70,2013-05-16 13:09:00,
2013-05-16 09:19:00,59.0,52.1,29.69,SSE,158,1.0,6.0,78,0.00,,,0.00,Weather View 32 v70,2013-05-16 13:19:00,
2013-05-16 09:24:00,60.0,51.7,29.69,SE,135,1.0,6.0,74,0.00,,,0.00,Weather View 32 v70,2013-05-16 13:24:00,
2013-05-16 09:29:00,60.0,49.8,29.69,SSW,202,1.0,6.0,69,0.00,,,0.00,Weather View 32 v70,2013-05-16 13:29:00,
2013-05-16 09:39:00,62.0,50.1,29.69,West,270,3.0,10.0,65,0.00,,,0.00,Weather View 32 v70,2013-05-16 13:39:00,
2013-05-16 09:44:00,63.0,48.9,29.69,SSW,202,3.0,10.0,60,0.00,,,0.00,Weather View 32 v70,2013-05-16 13:44:00,
2013-05-16 09:54:00,65.0,48.4,29.68,South,180,4.0,10.0,55,0.00,,,0.00,Weather View 32 v70,2013-05-16 13:54:00,
2013-05-16 10:05:00,65.0,46.9,29.68,WSW,248,6.0,13.0,52,0.00,,,0.00,Weather View 32 v70,2013-05-16 14:05:00,
2013-05-16 10:09:00,65.0,46.9,29.68,West,270,5.0,13.0,52,0.00,,,0.00,Weather View 32 v70,2013-05-16 14:09:00,
2013-05-16 10:19:00,65.0,46.4,29.68,SW,225,3.0,13.0,51,0.00,,,0.00,Weather View 32 v70,2013-05-16 14:19:00,
2013-05-16 10:29:00,66.0,46.8,29.68,SW,225,1.0,13.0,50,0.00,,,0.00,Weather View 32 v70,2013-05-16 14:29:00,
2013-05-16 10:34:00,66.0,46.2,29.69,SW,225,3.0,13.0,49,0.00,,,0.00,Weather View 32 v70,2013-05-16 14:34:00,
2013-05-16 10:44:00,67.0,46.1,29.69,SSW,202,1.0,13.0,47,0.00,,,0.00,Weather View 32 v70,2013-05-16 14:44:00,
2013-05-16 10:49:00,68.0,46.4,29.69,West,270,4.0,13.0,46,0.00,,,0.00,Weather View 32 v70,2013-05-16 14:49:00,
2013-05-16 10:54:00,68.0,46.4,29.69,West,270,6.0,13.0,46,0.00,,,0.00,Weather View 32 v70,2013-05-16 14:54:00,
2013-05-16 11:05:00,68.0,44.6,29.69,SSE,158,4.0,12.0,43,0.00,,,0.00,Weather View 32 v70,2013-05-16 15:05:00,
2013-05-16 11:09:00,69.0,44.9,29.68,WSW,248,2.0,12.0,42,0.00,,,0.00,Weather View 32 v70,2013-05-16 15:09:00,
2013-05-16 11:19:00,69.0,43.6,29.69,WSW,248,6.0,18.0,40,0.00,,,0.00,Weather View 32 v70,2013-05-16 15:19:00,
2013-05-16 11:29:00,70.0,44.5,29.67,WSW,248,4.0,18.0,40,0.00,,,0.00,Weather View 32 v70,2013-05-16 15:29:00,
2013-05-16 11:39:00,70.0,42.5,29.67,SSW,202,3.0,18.0,37,0.00,,,0.00,Weather View 32 v70,2013-05-16 15:39:00,
2013-05-16 11:44:00,70.0,42.5,29.67,South,180,8.0,18.0,37,0.00,,,0.00,Weather View 32 v70,2013-05-16 15:44:00,
2013-05-16 11:49:00,71.0,41.9,29.67,South,180,9.0,18.0,35,0.00,,,0.00,Weather View 32 v70,2013-05-16 15:49:00,
2013-05-16 11:54:00,70.0,41.0,29.67,SW,225,5.0,18.0,35,0.00,,,0.00,Weather View 32 v70,2013-05-16 15:54:00,
2013-05-16 12:04:00,71.0,41.9,29.67,SE,135,2.0,18.0,35,0.00,,,0.00,Weather View 32 v70,2013-05-16 16:04:00,
2013-05-16 12:14:00,72.0,43.5,29.67,West,270,7.0,18.0,36,0.00,,,0.00,Weather View 32 v70,2013-05-16 16:14:00,
2013-05-16 12:24:00,72.0,40.5,29.67,SSW,202,2.0,17.0,32,0.00,,,0.00,Weather View 32 v70,2013-05-16 16:24:00,
2013-05-16 12:30:00,73.0,42.9,29.67,SSW,202,4.0,17.0,34,0.00,,,0.00,Weather View 32 v70,2013-05-16 16:30:00,
2013-05-16 12:39:00,72.0,39.6,29.67,South,180,3.0,24.0,31,0.00,,,0.00,Weather View 32 v70,2013-05-16 16:39:00,
2013-05-16 12:50:00,73.0,42.1,29.67,SW,225,5.0,24.0,33,0.00,,,0.00,Weather View 32 v70,2013-05-16 16:50:00,
2013-05-16 12:59:00,73.0,40.5,29.66,WNW,292,5.0,24.0,31,0.00,,,0.00,Weather View 32 v70,2013-05-16 16:59:00,
2013-05-16 13:09:00,73.0,41.3,29.66,SW,225,7.0,24.0,32,0.00,,,0.00,Weather View 32 v70,2013-05-16 17:09:00,
2013-05-16 13:14:00,74.0,42.2,29.66,SE,135,5.0,24.0,32,0.00,,,0.00,Weather View 32 v70,2013-05-16 17:14:00,
2013-05-16 13:19:00,74.0,43.0,29.66,SSE,158,3.0,24.0,33,0.00,,,0.00,Weather View 32 v70,2013-05-16 17:19:00,
2013-05-16 13:24:00,74.0,42.2,29.66,WNW,292,8.0,24.0,32,0.00,,,0.00,Weather View 32 v70,2013-05-16 17:24:00,
2013-05-16 13:31:00,74.0,42.2,29.66,SW,225,6.0,24.0,32,0.00,,,0.00,Weather View 32 v70,2013-05-16 17:31:00,
2013-05-16 13:39:00,74.0,40.5,29.65,SSW,202,11.0,21.0,30,0.00,,,0.00,Weather View 32 v70,2013-05-16 17:39:00,
2013-05-16 13:49:00,74.0,39.6,29.66,WSW,248,5.0,21.0,29,0.00,,,0.00,Weather View 32 v70,2013-05-16 17:49:00,
2013-05-16 13:59:00,74.0,40.5,29.66,West,270,3.0,21.0,30,0.00,,,0.00,Weather View 32 v70,2013-05-16 17:59:00,
2013-05-16 14:04:00,75.0,42.2,29.65,South,180,2.0,21.0,31,0.00,,,0.00,Weather View 32 v70,2013-05-16 18:04:00,
2013-05-16 14:09:00,75.0,41.4,29.66,South,180,10.0,21.0,30,0.00,,,0.00,Weather View 32 v70,2013-05-16 18:09:00,
2013-05-16 14:19:00,75.0,42.2,29.64,SE,135,3.0,21.0,31,0.00,,,0.00,Weather View 32 v70,2013-05-16 18:19:00,
2013-05-16 14:24:00,76.0,43.1,29.65,WNW,292,2.0,21.0,31,0.00,,,0.00,Weather View 32 v70,2013-05-16 18:24:00,
2013-05-16 14:30:00,75.0,42.2,29.65,South,180,4.0,21.0,31,0.00,,,0.00,Weather View 32 v70,2013-05-16 18:30:00,
2013-05-16 14:39:00,75.0,40.5,29.65,South,180,1.0,21.0,29,0.00,,,0.00,Weather View 32 v70,2013-05-16 18:39:00,
2013-05-16 14:45:00,75.0,40.5,29.65,WNW,292,6.0,18.0,29,0.00,,,0.00,Weather View 32 v70,2013-05-16 18:45:00,
2013-05-16 14:49:00,76.0,42.2,29.66,WNW,292,5.0,18.0,30,0.00,,,0.00,Weather View 32 v70,2013-05-16 18:49:00,
2013-05-16 14:59:00,76.0,41.4,29.65,SSE,158,5.0,18.0,29,0.00,,,0.00,Weather View 32 v70,2013-05-16 18:59:00,
2013-05-16 15:04:00,77.0,42.2,29.65,SW,225,3.0,18.0,29,0.00,,,0.00,Weather View 32 v70,2013-05-16 19:04:00,
2013-05-16 15:10:00,77.0,41.3,29.64,SSE,158,2.0,18.0,28,0.00,,,0.00,Weather View 32 v70,2013-05-16 19:10:00,
2013-05-16 15:19:00,77.0,41.3,29.64,SW,225,1.0,17.0,28,0.00,,,0.00,Weather View 32 v70,2013-05-16 19:19:00,
2013-05-16 15:24:00,77.0,41.3,29.65,South,180,2.0,17.0,28,0.00,,,0.00,Weather View 32 v70,2013-05-16 19:24:00,
2013-05-16 15:29:00,76.0,41.4,29.65,SW,225,2.0,17.0,29,0.00,,,0.00,Weather View 32 v70,2013-05-16 19:29:00,
2013-05-16 15:34:00,77.0,40.4,29.65,West,270,1.0,17.0,27,0.00,,,0.00,Weather View 32 v70,2013-05-16 19:34:00,
2013-05-16 15:44:00,77.0,41.3,29.64,WSW,248,3.0,17.0,28,0.00,,,0.00,Weather View 32 v70,2013-05-16 19:44:00,
2013-05-16 15:55:00,77.0,42.2,29.64,SW,225,1.0,13.0,29,0.00,,,0.00,Weather View 32 v70,2013-05-16 19:55:00,
2013-05-16 16:04:00,76.0,39.5,29.64,WSW,248,1.0,18.0,27,0.00,,,0.00,Weather View 32 v70,2013-05-16 20:04:00,
2013-05-16 16:14:00,76.0,38.5,29.63,South,180,18.0,18.0,26,0.00,,,0.00,Weather View 32 v70,2013-05-16 20:14:00,
2013-05-16 16:25:00,77.0,42.2,29.64,SSW,202,3.0,18.0,29,0.00,,,0.00,Weather View 32 v70,2013-05-16 20:25:00,
2013-05-16 16:33:00,77.0,41.3,29.64,SE,135,3.0,18.0,28,0.00,,,0.00,Weather View 32 v70,2013-05-16 20:33:00,
2013-05-16 16:40:00,76.0,41.4,29.64,SW,225,3.0,18.0,29,0.00,,,0.00,Weather View 32 v70,2013-05-16 20:40:00,
2013-05-16 16:49:00,76.0,41.4,29.64,SE,135,4.0,18.0,29,0.00,,,0.00,Weather View 32 v70,2013-05-16 20:49:00,
2013-05-16 16:59:00,75.0,41.4,29.65,SSW,202,5.0,18.0,30,0.00,,,0.00,Weather View 32 v70,2013-05-16 20:59:00,
2013-05-16 17:04:00,74.0,39.6,29.65,WNW,292,3.0,18.0,29,0.00,,,0.00,Weather View 32 v70,2013-05-16 21:04:00,
2013-05-16 17:09:00,74.0,41.4,29.64,WSW,248,1.0,18.0,31,0.00,,,0.00,Weather View 32 v70,2013-05-16 21:09:00,
2013-05-16 17:14:00,74.0,40.5,29.65,SSE,158,5.0,18.0,30,0.00,,,0.00,Weather View 32 v70,2013-05-16 21:14:00,
2013-05-16 17:25:00,74.0,40.5,29.64,WNW,292,8.0,16.0,30,0.00,,,0.00,Weather View 32 v70,2013-05-16 21:25:00,
2013-05-16 17:33:00,74.0,39.6,29.65,WSW,248,5.0,14.0,29,0.00,,,0.00,Weather View 32 v70,2013-05-16 21:33:00,
2013-05-16 17:39:00,74.0,40.5,29.64,WSW,248,5.0,14.0,30,0.00,,,0.00,Weather View 32 v70,2013-05-16 21:39:00,
2013-05-16 17:44:00,74.0,40.5,29.65,SW,225,2.0,14.0,30,0.00,,,0.00,Weather View 32 v70,2013-05-16 21:44:00,
2013-05-16 17:49:00,74.0,41.4,29.66,SSE,158,3.0,14.0,31,0.00,,,0.00,Weather View 32 v70,2013-05-16 21:49:00,
2013-05-16 17:59:00,74.0,41.4,29.66,SSE,158,3.0,14.0,31,0.00,,,0.00,Weather View 32 v70,2013-05-16 21:59:00,
2013-05-16 18:04:00,73.0,41.3,29.66,South,180,3.0,14.0,32,0.00,,,0.00,Weather View 32 v70,2013-05-16 22:04:00,
2013-05-16 18:09:00,73.0,41.3,29.65,SW,225,1.0,14.0,32,0.00,,,0.00,Weather View 32 v70,2013-05-16 22:09:00,
2013-05-16 18:14:00,72.0,41.2,29.66,South,180,6.0,14.0,33,0.00,,,0.00,Weather View 32 v70,2013-05-16 22:14:00,
2013-05-16 18:24:00,73.0,40.5,29.66,SE,135,3.0,17.0,31,0.00,,,0.00,Weather View 32 v70,2013-05-16 22:24:00,
2013-05-16 18:29:00,72.0,41.2,29.67,SSE,158,1.0,17.0,33,0.00,,,0.00,Weather View 32 v70,2013-05-16 22:29:00,
2013-05-16 18:34:00,72.0,39.6,29.67,SSE,158,1.0,17.0,31,0.00,,,0.00,Weather View 32 v70,2013-05-16 22:34:00,
2013-05-16 18:44:00,72.0,40.5,29.68,SSE,158,1.0,17.0,32,0.00,,,0.00,Weather View 32 v70,2013-05-16 22:44:00,
2013-05-16 18:49:00,71.0,40.4,29.68,SSW,202,3.0,17.0,33,0.00,,,0.00,Weather View 32 v70,2013-05-16 22:49:00,
2013-05-16 18:59:00,70.0,41.0,29.69,SE,135,1.0,17.0,35,0.00,,,0.00,Weather View 32 v70,2013-05-16 22:59:00,
2013-05-16 19:10:00,68.0,40.7,29.69,WSW,248,1.0,17.0,37,0.00,,,0.00,Weather View 32 v70,2013-05-16 23:10:00,
2013-05-16 19:19:00,67.0,41.8,29.70,SSE,158,2.0,7.0,40,0.00,,,0.00,Weather View 32 v70,2013-05-16 23:19:00,
2013-05-16 19:24:00,67.0,41.8,29.70,South,180,1.0,7.0,40,0.00,,,0.00,Weather View 32 v70,2013-05-16 23:24:00,
2013-05-16 19:29:00,66.0,41.6,29.70,SSE,158,0.0,7.0,41,0.00,,,0.00,Weather View 32 v70,2013-05-16 23:29:00,
2013-05-16 19:34:00,66.0,42.2,29.71,WSW,248,1.0,7.0,42,0.00,,,0.00,Weather View 32 v70,2013-05-16 23:34:00,
2013-05-16 19:39:00,65.0,41.9,29.71,SSW,202,1.0,6.0,43,0.00,,,0.00,Weather View 32 v70,2013-05-16 23:39:00,
2013-05-16 19:49:00,64.0,43.9,29.72,WSW,248,1.0,6.0,48,0.00,,,0.00,Weather View 32 v70,2013-05-16 23:49:00,
2013-05-16 19:55:00,64.0,44.4,29.72,WSW,248,1.0,6.0,49,0.00,,,0.00,Weather View 32 v70,2013-05-16 23:55:00,
2013-05-16 20:04:00,62.0,43.6,29.73,WSW,248,1.0,6.0,51,0.00,,,0.00,Weather View 32 v70,2013-05-17 00:04:00,
2013-05-16 20:09:00,62.0,45.6,29.73,WNW,292,0.0,6.0,55,0.00,,,0.00,Weather View 32 v70,2013-05-17 00:09:00,
2013-05-16 20:19:00,61.0,44.7,29.74,West,270,1.0,6.0,55,0.00,,,0.00,Weather View 32 v70,2013-05-17 00:19:00,
2013-05-16 20:24:00,60.0,44.2,29.74,WSW,248,1.0,6.0,56,0.00,,,0.00,Weather View 32 v70,2013-05-17 00:24:00,
2013-05-16 20:29:00,60.0,44.7,29.75,West,270,1.0,6.0,57,0.00,,,0.00,Weather View 32 v70,2013-05-17 00:29:00,
2013-05-16 20:35:00,60.0,43.3,29.75,SW,225,3.0,6.0,54,0.00,,,0.00,Weather View 32 v70,2013-05-17 00:35:00,
2013-05-16 20:44:00,61.0,43.7,29.77,SW,225,1.0,8.0,53,0.00,,,0.00,Weather View 32 v70,2013-05-17 00:44:00,
2013-05-16 20:54:00,61.0,43.7,29.78,WNW,292,2.0,11.0,53,0.00,,,0.00,Weather View 32 v70,2013-05-17 00:54:00,
2013-05-16 21:04:00,61.0,44.2,29.79,WNW,292,1.0,11.0,54,0.00,,,0.00,Weather View 32 v70,2013-05-17 01:04:00,
2013-05-16 21:09:00,60.0,43.7,29.79,WNW,292,1.0,11.0,55,0.00,,,0.00,Weather View 32 v70,2013-05-17 01:09:00,
2013-05-16 21:19:00,60.0,44.2,29.81,SSW,202,1.0,11.0,56,0.00,,,0.00,Weather View 32 v70,2013-05-17 01:19:00,
2013-05-16 21:24:00,59.0,43.8,29.81,WNW,292,4.0,11.0,57,0.00,,,0.00,Weather View 32 v70,2013-05-17 01:24:00,
2013-05-16 21:34:00,59.0,44.2,29.82,WNW,292,1.0,13.0,58,0.00,,,0.00,Weather View 32 v70,2013-05-17 01:34:00,
2013-05-16 21:39:00,58.0,43.7,29.82,SW,225,3.0,13.0,59,0.00,,,0.00,Weather View 32 v70,2013-05-17 01:39:00,
2013-05-16 21:49:00,58.0,43.7,29.82,SSW,202,3.0,13.0,59,0.00,,,0.00,Weather View 32 v70,2013-05-17 01:49:00,
2013-05-16 22:00:00,57.0,43.2,29.83,WNW,292,1.0,13.0,60,0.00,,,0.00,Weather View 32 v70,2013-05-17 02:00:00,
2013-05-16 22:09:00,57.0,43.2,29.83,WNW,292,3.0,13.0,60,0.00,,,0.00,Weather View 32 v70,2013-05-17 02:09:00,
2013-05-16 22:14:00,57.0,43.2,29.83,West,270,2.0,13.0,60,0.00,,,0.00,Weather View 32 v70,2013-05-17 02:14:00,
2013-05-16 22:24:00,56.0,42.7,29.84,WNW,292,3.0,13.0,61,0.00,,,0.00,Weather View 32 v70,2013-05-17 02:24:00,
2013-05-16 22:29:00,56.0,42.7,29.84,WSW,248,4.0,11.0,61,0.00,,,0.00,Weather View 32 v70,2013-05-17 02:29:00,
2013-05-16 22:34:00,56.0,42.7,29.84,WNW,292,3.0,11.0,61,0.00,,,0.00,Weather View 32 v70,2013-05-17 02:34:00,
2013-05-16 22:44:00,56.0,43.1,29.85,WSW,248,1.0,11.0,62,0.00,,,0.00,Weather View 32 v70,2013-05-17 02:44:00,
2013-05-16 22:49:00,56.0,43.1,29.85,WNW,292,1.0,11.0,62,0.00,,,0.00,Weather View 32 v70,2013-05-17 02:49:00,
2013-05-16 22:59:00,55.0,42.2,29.85,WNW,292,1.0,10.0,62,0.00,,,0.00,Weather View 32 v70,2013-05-17 02:59:00,
2013-05-16 23:04:00,55.0,42.2,29.85,WNW,292,1.0,10.0,62,0.00,,,0.00,Weather View 32 v70,2013-05-17 03:04:00,
2013-05-16 23:14:00,55.0,42.2,29.85,WNW,292,1.0,9.0,62,0.00,,,0.00,Weather View 32 v70,2013-05-17 03:14:00,
2013-05-16 23:25:00,55.0,43.0,29.85,SSE,158,1.0,9.0,64,0.00,,,0.00,Weather View 32 v70,2013-05-17 03:25:00,
2013-05-16 23:29:00,55.0,42.6,29.86,WNW,292,1.0,8.0,63,0.00,,,0.00,Weather View 32 v70,2013-05-17 03:29:00,
2013-05-16 23:37:00,55.0,42.6,29.86,WNW,292,3.0,8.0,63,0.00,,,0.00,Weather View 32 v70,2013-05-17 03:37:00,
2013-05-16 23:45:00,55.0,42.2,29.86,West,270,3.0,8.0,62,0.00,,,0.00,Weather View 32 v70,2013-05-17 03:45:00,
2013-05-16 23:49:00,55.0,41.8,29.86,West,270,6.0,8.0,61,0.00,,,0.00,Weather View 32 v70,2013-05-17 03:49:00,
2013-05-16 23:59:00,55.0,41.8,29.87,WNW,292,2.0,8.0,61,0.00,,,0.00,Weather View 32 v70,2013-05-17 03:59:00,